Location: Unspecified
(0.0000°N, 0.0000°E)
Time: 22:28:05
(UTC+00:00)

STARLINK-33794 - Visible Passes

Search period start: 20 June 2025 00:00
Search period end: 30 June 2025 00:00
Orbit: 467 x 469 km, 43.0° (Epoch: 20 June)

Date Brightness Start Highest point End Pass type
(mag) Time Alt. Az. Time Alt. Az. Time Alt. Az.
21 Jun 3.6 19:16:02 10° SSW 19:19:37 44° SE 19:19:37 44° SE visible
22 Jun 3.7 18:48:29 10° SSW 18:52:06 42° SE 18:55:43 10° ENE visible
22 Jun 6.6 20:29:35 10° WNW 20:31:02 12° NW 20:31:15 12° NW visible
23 Jun 3.7 18:23:30 10° SSW 18:27:11 44° SE 18:30:52 10° ENE visible
23 Jun 6.7 20:04:53 10° WNW 20:06:18 12° NW 20:07:43 10° NNW visible
24 Jun 6.8 19:42:56 10° WNW 19:43:59 11° NW 19:45:01 10° NNW visible
26 Jun 4.0 05:31:13 10° NW 05:35:07 65° NE 05:39:03 10° SE visible
27 Jun 3.5 05:14:04 10° NW 05:18:03 84° NE 05:22:02 10° SE visible
28 Jun 3.4 04:58:56 10° NW 05:02:56 72° SW 05:06:57 10° SE visible
29 Jun 3.6 04:48:00 30° WNW 04:49:41 51° SW 04:53:38 10° SSE visible
